Location: Montbazon
(47.2835°N, 0.6999°E)
Time: 08:03:34
(UTC+00:00)

ACS3 Solar Sail - Pass Details

Date: 08 November 2025
Orbit: 888 x 1001 km, 97.3° (Epoch: 12 December)

Event Time Altitude Azimuth Distance (km) Brightness Sun altitude
Rises 01:53:48 0° 27° (NNE) 3,529 5.3 -48.9°
Reaches altitude 10° 01:57:16 10° 49° (NE) 2,600 4.5 -48.5°
Enters shadow 01:57:47 11° 53° (NE) 2,498 4.4 -48.4°
